TimeCST,TemperatureF,Dew PointF,Humidity,Sea Level PressureIn,VisibilityMPH,Wind Direction,Wind SpeedMPH,Gust SpeedMPH,PrecipitationIn,Events,Conditions,WindDirDegrees,DateUTC
12:52 AM,21.0,14.0,74,30.45,-9999.0,NW,3.5,-,N/A,,Unknown,310,2012-11-24 06:52:00
1:52 AM,23.0,12.9,65,-9999,-9999.0,NNW,3.5,-,N/A,,Unknown,340,2012-11-24 07:52:00
2:52 AM,21.0,12.9,71,30.44,-9999.0,Calm,Calm,-,N/A,,Unknown,0,2012-11-24 08:52:00
3:52 AM,19.0,12.9,77,30.43,-9999.0,Calm,Calm,-,N/A,,Unknown,0,2012-11-24 09:52:00
4:52 AM,19.9,12.9,74,30.42,-9999.0,Calm,Calm,-,N/A,,Unknown,0,2012-11-24 10:52:00
5:52 AM,19.9,12.9,74,30.42,-9999.0,Calm,Calm,-,N/A,,Unknown,0,2012-11-24 11:52:00
6:52 AM,19.0,12.9,77,30.43,-9999.0,Calm,Calm,-,N/A,,Unknown,0,2012-11-24 12:52:00
7:52 AM,21.0,15.1,78,30.42,-9999.0,Calm,Calm,-,N/A,,Unknown,0,2012-11-24 13:52:00
8:52 AM,23.0,16.0,74,30.40,-9999.0,SSE,4.6,-,N/A,,Unknown,150,2012-11-24 14:52:00
9:52 AM,26.1,16.0,66,30.40,-9999.0,SSW,5.8,-,N/A,,Unknown,210,2012-11-24 15:52:00
10:52 AM,30.9,18.0,59,30.36,-9999.0,Variable,6.9,-,N/A,,Unknown,0,2012-11-24 16:52:00
11:52 AM,33.1,18.0,54,30.31,-9999.0,South,8.1,-,N/A,,Unknown,190,2012-11-24 17:52:00
12:52 PM,36.0,17.1,46,30.25,-9999.0,SSE,6.9,-,N/A,,Unknown,150,2012-11-24 18:52:00
1:52 PM,37.0,18.0,46,30.20,-9999.0,SE,10.4,-,N/A,,Unknown,140,2012-11-24 19:52:00
2:52 PM,37.9,18.0,45,30.15,-9999.0,SSE,11.5,-,N/A,,Unknown,150,2012-11-24 20:52:00
3:52 PM,39.0,18.0,43,30.11,-9999.0,SSE,9.2,18.4,N/A,,Unknown,150,2012-11-24 21:52:00
4:52 PM,37.0,19.0,48,30.06,-9999.0,SSE,11.5,-,N/A,,Unknown,160,2012-11-24 22:52:00
5:52 PM,36.0,19.9,52,30.06,-9999.0,SSE,6.9,-,N/A,,Unknown,160,2012-11-24 23:52:00
6:52 PM,37.0,21.0,52,30.04,-9999.0,SSE,6.9,-,N/A,,Unknown,150,2012-11-25 00:52:00
7:52 PM,37.0,21.9,54,30.03,-9999.0,SSE,5.8,-,N/A,,Unknown,160,2012-11-25 01:52:00
8:52 PM,37.0,21.9,54,30.02,-9999.0,Calm,Calm,-,N/A,,Unknown,0,2012-11-25 02:52:00
9:52 PM,37.9,23.0,55,29.97,-9999.0,South,8.1,-,N/A,,Unknown,180,2012-11-25 03:52:00
10:52 PM,39.9,23.0,51,29.96,-9999.0,SSW,6.9,-,N/A,,Unknown,200,2012-11-25 04:52:00
11:52 PM,39.9,24.1,53,29.94,-9999.0,South,8.1,-,N/A,,Unknown,190,2012-11-25 05:52:00